Stündliche Wetter Juan les Pins

Heute, 1 Oktober, Donnerstag

Zeit Temperatur Niederschläge Wind Luftdruck Luftfeuchtigkeit
00:00 +18°C° 0 mm 1 m/S 758 mmHg 79%
01:00 +16°C° 0 mm 1 m/S 757 mmHg 78%
02:00 +16°C° 0 mm 1 m/S 757 mmHg 77%
03:00 +16°C° 0 mm 1 m/S 756 mmHg 76%
04:00 +16°C° 0 mm 1 m/S 756 mmHg 75%
05:00 +16°C° 0 mm 1 m/S 756 mmHg 74%
06:00 +16°C° 0 mm 2 m/S 756 mmHg 71%
07:00 +18°C° 0 mm 2 m/S 756 mmHg 65%
08:00 +20°C° 0 mm 2 m/S 755 mmHg 59%
09:00 +23°C° 0 mm 2 m/S 755 mmHg 53%
10:00 +24°C° 0 mm 3 m/S 755 mmHg 51%
11:00 +25°C° 0 mm 4 m/S 755 mmHg 49%
12:00 +26°C° 0 mm 5 m/S 755 mmHg 47%
13:00 +24°C° 0 mm 6 m/S 754 mmHg 52%
14:00 +24°C° 0 mm 6 m/S 754 mmHg 57%
15:00 +24°C° 0 mm 6 m/S 753 mmHg 62%
16:00 +23°C° 0.8 mm 6 m/S 753 mmHg 70%
17:00 +21°C° 0.8 mm 5 m/S 753 mmHg 78%
18:00 +20°C° 0.8 mm 5 m/S 753 mmHg 86%
19:00 +20°C° 1 mm 4 m/S 753 mmHg 86%
20:00 +19°C° 1 mm 4 m/S 753 mmHg 87%
21:00 +19°C° 1 mm 4 m/S 752 mmHg 87%
22:00 +19°C° 0 mm 3 m/S 752 mmHg 87%
23:00 +19°C° 0 mm 3 m/S 751 mmHg 88%

Morgen, 2 Oktober, Freitag

Zeit Temperatur Niederschläge Wind Luftdruck Luftfeuchtigkeit
00:00 +18°C° 0 mm 2 m/S 751 mmHg 88%
01:00 +18°C° 0 mm 2 m/S 750 mmHg 88%
02:00 +18°C° 0 mm 2 m/S 750 mmHg 88%
03:00 +18°C° 0 mm 2 m/S 749 mmHg 88%
04:00 +18°C° 0.3 mm 2 m/S 749 mmHg 88%
05:00 +18°C° 0.3 mm 2 m/S 748 mmHg 87%
06:00 +18°C° 0.3 mm 2 m/S 748 mmHg 87%
07:00 +18°C° 1.6 mm 3 m/S 747 mmHg 88%
08:00 +19°C° 1.6 mm 4 m/S 747 mmHg 89%
09:00 +19°C° 1.6 mm 6 m/S 747 mmHg 89%
10:00 +20°C° 4 mm 7 m/S 746 mmHg 90%
11:00 +19°C° 4 mm 9 m/S 746 mmHg 91%
12:00 +19°C° 4 mm 10 m/S 745 mmHg 92%
13:00 +19°C° 3.3 mm 9 m/S 745 mmHg 91%
14:00 +20°C° 3.3 mm 7 m/S 745 mmHg 90%
15:00 +20°C° 3.3 mm 6 m/S 744 mmHg 89%
16:00 +20°C° 3.8 mm 6 m/S 744 mmHg 91%
17:00 +20°C° 3.8 mm 6 m/S 744 mmHg 93%
18:00 +20°C° 3.8 mm 7 m/S 744 mmHg 96%
19:00 +20°C° 2.4 mm 7 m/S 743 mmHg 95%
20:00 +20°C° 2.4 mm 7 m/S 743 mmHg 95%
21:00 +20°C° 2.4 mm 7 m/S 743 mmHg 95%
22:00 +20°C° 1.8 mm 8 m/S 743 mmHg 94%
23:00 +18°C° 1.8 mm 8 m/S 743 mmHg 93%

übermorgen, 3 Oktober, Samstag

Zeit Temperatur Niederschläge Wind Luftdruck Luftfeuchtigkeit
00:00 +18°C° 1.8 mm 8 m/S 743 mmHg 92%
01:00 +16°C° 1 mm 7 m/S 744 mmHg 89%
02:00 +15°C° 1 mm 7 m/S 744 mmHg 86%
03:00 +14°C° 1 mm 6 m/S 744 mmHg 83%
04:00 +14°C° 0.3 mm 7 m/S 745 mmHg 82%
05:00 +12°C° 0.3 mm 7 m/S 746 mmHg 80%
06:00 +12°C° 0.3 mm 7 m/S 747 mmHg 79%
07:00 +14°C° 0 mm 6 m/S 747 mmHg 72%
08:00 +15°C° 0 mm 6 m/S 748 mmHg 65%
09:00 +17°C° 0 mm 6 m/S 748 mmHg 58%
10:00 +17°C° 0 mm 5 m/S 748 mmHg 56%
11:00 +19°C° 0 mm 5 m/S 748 mmHg 53%
12:00 +20°C° 0 mm 5 m/S 748 mmHg 51%
13:00 +20°C° 0 mm 6 m/S 748 mmHg 54%
14:00 +20°C° 0 mm 7 m/S 748 mmHg 58%
15:00 +18°C° 0 mm 8 m/S 749 mmHg 61%
16:00 +17°C° 0.1 mm 7 m/S 749 mmHg 66%
17:00 +16°C° 0.1 mm 7 m/S 749 mmHg 71%
18:00 +15°C° 0.1 mm 6 m/S 750 mmHg 76%
19:00 +15°C° 0 mm 6 m/S 750 mmHg 77%
20:00 +15°C° 0 mm 6 m/S 751 mmHg 77%
21:00 +15°C° 0 mm 6 m/S 751 mmHg 78%
22:00 +14°C° 0 mm 7 m/S 751 mmHg 77%
23:00 +14°C° 0 mm 7 m/S 752 mmHg 76%

4 Oktober, Sonntag

Zeit Temperatur Niederschläge Wind Luftdruck Luftfeuchtigkeit
00:00 +13°C° 0 mm 8 m/S 752 mmHg 75%
01:00 +12°C° 0 mm 7 m/S 752 mmHg 75%
02:00 +13°C° 0 mm 6 m/S 752 mmHg 75%
03:00 +11°C° 0 mm 6 m/S 752 mmHg 74%
04:00 +12°C° 0 mm 5 m/S 752 mmHg 73%
05:00 +12°C° 0 mm 4 m/S 752 mmHg 72%
06:00 +12°C° 0 mm 3 m/S 753 mmHg 71%
07:00 +14°C° 0.2 mm 2 m/S 753 mmHg 71%
08:00 +15°C° 0.2 mm 2 m/S 753 mmHg 70%
09:00 +16°C° 0.2 mm 1 m/S 753 mmHg 70%
10:00 +16°C° 1.4 mm 2 m/S 752 mmHg 75%
11:00 +14°C° 1.4 mm 3 m/S 752 mmHg 80%
12:00 +14°C° 1.4 mm 4 m/S 752 mmHg 85%
13:00 +14°C° 1.1 mm 3 m/S 752 mmHg 86%
14:00 +14°C° 1.1 mm 3 m/S 751 mmHg 87%
15:00 +14°C° 1.1 mm 3 m/S 751 mmHg 88%
16:00 +15°C° 0.6 mm 2 m/S 751 mmHg 88%
17:00 +15°C° 0.6 mm 2 m/S 751 mmHg 87%
18:00 +14°C° 0.6 mm 1 m/S 751 mmHg 87%
19:00 +14°C° 0.5 mm 2 m/S 752 mmHg 85%
20:00 +14°C° 0.5 mm 2 m/S 752 mmHg 83%
21:00 +14°C° 0.5 mm 2 m/S 752 mmHg 81%
22:00 +14°C° 0.1 mm 2 m/S 752 mmHg 81%
23:00 +13°C° 0.1 mm 2 m/S 752 mmHg 81%

5 Oktober, Montag

Zeit Temperatur Niederschläge Wind Luftdruck Luftfeuchtigkeit
00:00 +13°C° 0.1 mm 2 m/S 752 mmHg 80%
01:00 +12°C° 0 mm 3 m/S 752 mmHg 80%
02:00 +11°C° 0 mm 4 m/S 752 mmHg 80%
03:00 +10°C° 0 mm 5 m/S 752 mmHg 80%
04:00 +10°C° 0 mm 5 m/S 753 mmHg 79%
05:00 +10°C° 0 mm 5 m/S 753 mmHg 79%
06:00 +10°C° 0 mm 5 m/S 753 mmHg 78%
07:00 +13°C° 0 mm 5 m/S 754 mmHg 71%
08:00 +15°C° 0 mm 5 m/S 754 mmHg 65%
09:00 +17°C° 0 mm 5 m/S 754 mmHg 59%
10:00 +19°C° 0 mm 5 m/S 755 mmHg 54%
11:00 +20°C° 0 mm 5 m/S 755 mmHg 50%
12:00 +21°C° 0 mm 5 m/S 755 mmHg 45%
13:00 +21°C° 0 mm 5 m/S 755 mmHg 46%
14:00 +21°C° 0 mm 6 m/S 755 mmHg 46%
15:00 +21°C° 0 mm 6 m/S 755 mmHg 47%
16:00 +19°C° 0 mm 6 m/S 756 mmHg 52%
17:00 +17°C° 0 mm 6 m/S 756 mmHg 58%
18:00 +15°C° 0 mm 6 m/S 757 mmHg 63%
19:00 +15°C° 0 mm 6 m/S 757 mmHg 64%
20:00 +14°C° 0 mm 6 m/S 757 mmHg 65%
21:00 +14°C° 0 mm 6 m/S 758 mmHg 66%
22:00 +14°C° 0 mm 5 m/S 758 mmHg 67%
23:00 +13°C° 0 mm 5 m/S 758 mmHg 68%

6 Oktober, Dienstag

Zeit Temperatur Niederschläge Wind Luftdruck Luftfeuchtigkeit
00:00 +13°C° 0 mm 4 m/S 758 mmHg 69%
01:00 +13°C° 0 mm 5 m/S 758 mmHg 70%
02:00 +13°C° 0 mm 5 m/S 758 mmHg 70%
03:00 +12°C° 0 mm 5 m/S 758 mmHg 70%
04:00 +12°C° 0 mm 5 m/S 758 mmHg 70%
05:00 +12°C° 0 mm 5 m/S 758 mmHg 70%
06:00 +12°C° 0 mm 5 m/S 758 mmHg 71%
07:00 +14°C° 0 mm 4 m/S 758 mmHg 63%
08:00 +17°C° 0 mm 4 m/S 758 mmHg 56%
09:00 +19°C° 0 mm 3 m/S 758 mmHg 49%
10:00 +20°C° 0 mm 3 m/S 759 mmHg 46%
11:00 +21°C° 0 mm 4 m/S 759 mmHg 44%
12:00 +22°C° 0 mm 4 m/S 759 mmHg 41%
13:00 +22°C° 0 mm 4 m/S 759 mmHg 43%
14:00 +22°C° 0 mm 5 m/S 759 mmHg 45%
15:00 +21°C° 0 mm 5 m/S 759 mmHg 46%
16:00 +20°C° 0 mm 5 m/S 759 mmHg 52%
17:00 +19°C° 0 mm 5 m/S 759 mmHg 58%
18:00 +16°C° 0 mm 5 m/S 759 mmHg 64%
19:00 +16°C° 0 mm 5 m/S 759 mmHg 65%
20:00 +16°C° 0 mm 5 m/S 759 mmHg 66%
21:00 +17°C° 0 mm 4 m/S 759 mmHg 67%
22:00 +17°C° 0 mm 4 m/S 759 mmHg 68%
23:00 +16°C° 0 mm 5 m/S 759 mmHg 69%
Mehr zeigen